Regional Weather Roundup
Issued by NWS Charleston, SC

Current Version | Previous Version | Graphics & Text | Print | Product List | Glossary On
Versions: 1 2 3 4 5 6 7 8 9 10 11 12 13 14 15 16 17 18 19 20 21 22 23 24 25 26 27 28 29 30 31 32 33 34 35 36 37 38 39 40 41 42 43 44 45 46 47 48 49 50
000 ASUS42 KCHS 081712 RWRCHS REGIONAL WEATHER ROUNDUP NATIONAL WEATHER SERVICE CHARLESTON SC 1200 PM EST THU DEC 08 2016 NOTE: "FAIR" INDICATES FEW OR NO CLOUDS BELOW 12,000 FEET WITH NO SIGNIFICANT WEATHER AND/OR OBSTRUCTIONS TO VISIBILITY. NOT ALL STATIONS ARE QUALITY CONTROLLED. USE DATA WITH CAUTION... ESPECIALLY DEWPOINT OBSERVATIONS. SCZ027-030-031-034>040-042>050-081800- ...SOUTHEAST SOUTH CAROLINA... CITY SKY/WX TMP DP RH WIND PRES REMARKS N CHARLESTON MOSUNNY 63 48 58 NW10 30.09F WATERFRONT PRK N/A 60 54 80 NW6 30.10F MOUNT PLEASANT NOT AVBL JOHNS ISLAND FAIR 63 52 67 NW9 30.09F PINOPOLIS N/A 57 54 88 NW5 30.03F MONCKS CORNER FAIR 61 48 63 NW3 30.09F SUMMERVILLE FAIR 63 52 67 NW6 30.10F BEAUFORT MCAS SUNNY 61 45 55 W8G17 30.11F BEAUFORT ARPT FAIR 61 46 59 W13 30.11F HILTON HEAD IS SUNNY 63 46 55 W14 30.13 WALTERBORO SUNNY 63 46 55 W6 30.11F ALLENDALE FAIR 57 45 62 SW7 30.12F ...SOUTHERN MIDLANDS AND PEE DEE... CITY SKY/WX TMP DP RH WIND PRES REMARKS GEORGETOWN CLOUDY 55 52 88 W5 30.11F KINGSTREE CLOUDY 59 46 63 NW8 30.09F ORANGEBURG SUNNY 59 45 59 NW8 30.11F BARNWELL NOT AVBL AIKEN FAIR 52 43 71 W10 30.17F MANNING PTSUNNY 59 46 63 W3 30.09F COLUMBIA CLOUDY 54 45 71 NW9 30.13F SUMTER PTSUNNY 58 46 64 N12 30.09S FLORENCE CLOUDY 57 48 72 NW10 30.10F MYRTLE BEACH CLOUDY 57 52 82 NW12 30.10F N MYRTLE BEACH CLOUDY 57 52 83 NW8 30.08F $$ GAZ063-065-086>088-099>101-113>116-118-119-134>141-150-081800- ...SOUTHEAST GEORGIA... CITY SKY/WX TMP DP RH WIND PRES REMARKS SAVANNAH ARPT PTSUNNY 62 41 46 W12 30.14F HUNTER AAF SUNNY 61 49 64 W10 30.11F FORT STEWART SUNNY 60 41 49 VRB6 30.13F STATESBORO SUNNY 60 44 55 W9 30.15F SYLVANIA SUNNY N/A N/A N/A NW8 30.15F CLAXTON FAIR 58 45 60 W8G16 30.16F ...CSRA...CENTRAL AND FAR SOUTHEAST GEORGIA... CITY SKY/WX TMP DP RH WIND PRES REMARKS THOMSON CLOUDY 55 46 69 NW7 30.21F AUGUSTA-BUSH PTSUNNY 59 42 53 NW12 30.14F AUGUSTA-DANIEL CLOUDY 55 40 56 NW12 30.16F SWAINSBORO FAIR 55 39 54 W10 30.18S VIDALIA SUNNY 59 45 58 NW9 30.18F EASTMAN FAIR 59 22 23 NW3 30.23F HAZLEHURST FAIR 60 40 48 NW6 30.18F ALMA SUNNY 59 42 53 NW10 30.18F WAYCROSS MOSUNNY 62 51 67 NW6 30.18F JESUP FAIR 61 50 67 NW8 30.16F BAXLEY FAIR 59 45 58 NW9 30.18F BRUNSWICK SUNNY 59 52 77 W9 30.17F SAINT SIMONS SUNNY 58 48 69 NW8G22 30.16F $$ SCZ027-028-034-036>038-045-046-048>050-GAZ119-141-081800- ...LAKE AND SUPPLEMENTAL COASTAL OBSERVATIONS... STATION/POSITION TIME TEMP WIND PRES WAVE SWELL AIR SEA DIR/SP/G HT/PER HT/PER/DIR (UTC) (F) (DEG/KT/KT) (MB) (FT/S) (FT/S/D) WINYAH BAY NOT AVBL LAKE MURRAY 1620 51 320/ 3/ 9 1020.3R ACE BASIN NERRS 1545 58 310/ 3 1020.0 FORT PULASKI 1648 58 62 300/ 13/ 15 1020.4F SAPELO ISLAND 1600 56 290/ 10 1022.0 $$ ANZ835-935-AMZ111-154-330-350-352-354-370-450-454-472-081800- ...C-MAN AND BUOY OBSERVATIONS... STATION/POSITION TIME TEMP WIND PRES WAVE SWELL AIR SEA DIR/SP/G HT/PER HT/PER/DIR (UTC) (F) (DEG/KT/KT) (MB) (FT/S) (FT/S/D) BUOY 41004 1650 61 74 290/ 14/ 16 1018.3F 2/ 4 2/100/ 7 BUOY 41008 1650 56 64 290/ 10/ 14 1020.5F 3/ 4 2/160/11 FOLLY BEACH CMAN 1600 58 290/ 6/ 9 1020.5F CAPERS NEARSHORE NOT AVBL FRIPP NEARSHORE 1608 57 62 300/ 10/ 14 1019.7F STATION/POSITION TIME TEMP WIND PRES WAVE SWELL AIR SEA DIR/SP/G HT/PER HT/PER/DIR (UTC) (F) (DEG/KT/KT) (MB) (FT/S) (FT/S/D) 5E ST. MARYS GA 1700 65 N/A 2/10 FRYING PAN BUOY 1650 61 74 290/ 14/ 17 1018.1F 3/ 4 2/ 60/10 BUOY 41025 1650 62 78 260/ 14/ 19 1016.2F 4/11 3/ 50/11 CAPE LOOKOUT NC 1600 59 270/ 14/ 17 1017.7F BUOY 41002 1650 73 74 270/ 12/ 14 1017.0F 5/10 3/ 30/10 BUOY 41010 NOT AVBL ST AUGUSTINE FL 1700 60 67 350/ 10/ 13 1022.1F $$

USA.gov is the U.S. government's official web portal to all federal, state and local government web resources and services.